Location: Unspecified
(0.0000°N, 0.0000°E)
Time: 20:43:47
(UTC+02:00)

Vanguard 1 Rocket - Visible Passes

Search period start: 24 June 2018 00:00
Search period end: 04 July 2018 00:00
Orbit: 653 x 4224 km, 34.3° (Epoch: 23 June)

Date Brightness Start Highest point End Pass type
(mag) Time Alt. Az. Time Alt. Az. Time Alt. Az.
24 Jun 11.1 02:34:38 13° SE 02:34:38 13° SE 02:36:04 10° SE visible
24 Jun 11.0 04:51:56 33° S 04:51:56 33° S 05:08:43 10° SE visible
24 Jun 11.4 07:09:17 10° SW 07:26:44 21° S 07:41:44 10° SE visible
24 Jun 10.2 22:24:29 10° N 22:30:31 19° NE 22:31:53 19° NE visible
25 Jun 10.3 00:46:07 10° NW 00:49:07 25° NW 00:49:07 25° NW visible
25 Jun 11.3 03:44:55 25° SSE 03:44:55 25° SSE 03:53:50 10° SE visible
25 Jun 11.1 06:02:13 23° SSW 06:08:06 24° SSW 06:26:40 10° SE visible
25 Jun 9.6 23:35:57 10° NNW 23:41:36 40° N 23:41:36 40° N visible
26 Jun 11.2 02:37:50 11° SE 02:37:50 11° SE 02:38:28 10° SE visible
26 Jun 11.1 04:55:07 29° S 04:55:07 29° S 05:11:31 10° SE visible
26 Jun 11.4 07:14:25 10° SW 07:31:58 21° S 07:46:40 10° SE visible
26 Jun 9.8 22:26:44 10° N 22:33:31 26° NE 22:34:09 26° NE visible
27 Jun 10.4 00:49:20 10° NW 00:51:24 21° NW 00:51:24 21° NW visible
27 Jun 11.4 03:47:58 23° SSE 03:47:58 23° SSE 03:56:15 10° SE visible
27 Jun 11.2 06:05:15 20° SSW 06:13:10 22° S 06:30:42 10° SE visible
27 Jun 9.5 23:38:52 10° NW 23:43:59 43° NNW 23:43:59 43° NNW visible
28 Jun 11.8 02:40:46 10° SE 02:40:46 10° SE 02:40:47 10° SE visible
28 Jun 11.2 04:58:03 25° S 04:58:03 25° S 05:14:40 10° SE visible
28 Jun 11.4 07:18:48 10° SW 07:37:08 22° S 07:51:59 10° SE visible
28 Jun 9.4 22:29:17 10° NNW 22:36:22 35° NE 22:36:37 35° NE visible
29 Jun 10.6 00:52:45 10° WNW 00:53:52 15° WNW 00:53:52 15° WNW visible
29 Jun 11.4 03:50:48 21° SSE 03:50:48 21° SSE 03:58:47 10° SE visible
29 Jun 11.3 06:08:05 17° SSW 06:18:25 22° S 06:35:23 10° SE visible
29 Jun 9.9 21:21:14 10° N 21:25:10 15° NE 21:29:16 11° ENE visible
29 Jun 9.4 23:41:59 10° NW 23:46:33 42° NW 23:46:33 42° NW visible
30 Jun 11.3 05:00:48 23° S 05:00:48 23° S 05:18:21 10° SE visible
30 Jun 11.4 07:22:28 10° SW 07:42:04 25° SSE 07:57:24 10° ESE visible
30 Jun 8.9 22:32:03 10° NNW 22:39:11 47° NE 22:39:15 47° NE visible
01 Jul 10.8 00:56:25 10° WNW 00:56:32 10° WNW 00:56:32 10° WNW visible
01 Jul 11.5 03:53:30 19° SSE 03:53:30 19° SSE 04:01:35 10° SE visible
01 Jul 11.3 06:10:47 16° SSW 06:23:41 22° S 06:40:38 10° SE visible
01 Jul 9.5 21:23:10 10° N 21:28:10 22° NE 21:32:00 17° ENE visible
01 Jul 9.5 23:45:18 10° WNW 23:49:16 38° WNW 23:49:16 38° WNW visible
02 Jul 11.3 05:03:28 22° S 05:04:43 22° S 05:22:41 10° SE visible
02 Jul 11.3 07:25:35 10° SW 07:46:42 29° SSE 08:02:38 10° ESE visible
02 Jul 8.5 22:35:01 10° NW 22:42:02 64° NE 22:42:02 64° NE visible
03 Jul 11.5 03:56:09 19° SSE 03:56:09 19° SSE 04:04:49 10° SE visible
03 Jul 11.4 06:13:25 14° SSW 06:28:47 24° SSE 06:46:09 10° ESE visible
03 Jul 9.0 21:25:37 10° NNW 21:31:04 31° NE 21:34:52 23° E visible
